Location: Trebic
(49.2170°N, 15.8830°E)
Time: 12:55:33
(UTC+02:00)

Transit 4A - Pass Details

Date: 25 August 2019
Orbit: 865 x 979 km, 66.8° (Epoch: 22 September)

Event Time Altitude Azimuth Distance (km) Brightness Sun altitude
Rises 03:24:16 0° 322° (NW) 3,642 11.2 -21.9°
Reaches altitude 10° 03:26:53 10° 320° (NW) 2,677 10.4 -21.6°
Maximum altitude 03:33:01 64° 241° (WSW) 1,025 7.8 -21.0°
Enters shadow 03:38:44 11° 161° (SSE) 2,505 9.9 -20.4°
Drops below altitude 10° 03:38:57 10° 161° (SSE) 2,582 - -20.4°
Sets 03:41:25 0° 158° (SSE) 3,503 - -20.1°
